Flag for Micronesia Weather past 2 weeks in Kolonia, Pohnpei, Micronesia

87 °F

Partly sunny.

Feels Like: 98 °F
Forecast: 79 / 85 °F
Wind: 9 mph from Northeast

Location: Pohnpei

Current Time: Nov 29, 2015 at 1:16:41 PM

Latest Report: Nov 29, 2015 at 11:50 AM

Visibility: 15 mi

Pressure: 29.84 "Hg

Humidity: 69%

Dew point: 76 °F

Location of KoloniaLocation

Historic Weather in Kolonia — Graph


Kolonia temperature yesterday

Maximum temperature yesterday: 88 °F (at 11:55 AM)
Minimum temperature yesterday: 77 °F (at 10:51 PM)
Average temperature yesterday: 82 °F

Past Weeks' High & Low Weather Summary

High89 °F (Nov 22, 1:52 PM)100% (Nov 19, 3:00 PM)29.88 "Hg (Nov 19, 3:00 PM)
Low74 °F (Nov 20, 3:55 AM)67% (Nov 28, 9:50 AM)29.72 "Hg (Nov 15, 2:51 PM)
Average82 °F85%29.80 "Hg
* Reported Nov 14 11:51 AM — Nov 29 11:50 AM, Kolonia, Weather by CustomWeather, © 2015

Note: Actual official high and low records may vary slightly from our data, if they occured in-between our weather recording intervals... More about our weather records


Kolonia weather history for previous 24 hours

Time TempWeatherWind HumidityBarometerVisibility
11:50 AM
Sun, Nov 29
87 °FPartly sunny.9 mph69%29.84 "Hg15 mi
10:50 AM85 °FBroken clouds.12 mph84%29.87 "Hg15 mi
9:50 AM86 °FBroken clouds.7 mph83%29.87 "Hg15 mi
8:50 AM85 °FBroken clouds.8 mph85%29.88 "Hg15 mi
7:53 AM83 °FMostly cloudy.8 mph81%29.87 "Hg15 mi
6:50 AM80 °FMostly cloudy.5 mph86%29.83 "Hg15 mi
5:51 AM78 °FMostly cloudy.3 mph87%29.81 "Hg15 mi
4:51 AM78 °FMostly cloudy.3 mph87%29.81 "Hg15 mi
3:53 AM78 °FMostly cloudy.3 mph87%29.80 "Hg15 mi
1:50 AM79 °FSprinkles. Mostly cloudy.9 mph91%29.85 "Hg12 mi
12:52 AM79 °FOvercast.6 mph90%29.85 "Hg15 mi
11:53 PM
Sat, Nov 28
78 °FOvercast.6 mph82%29.85 "Hg15 mi
10:51 PM77 °FPartly cloudy.3 mph90%29.85 "Hg15 mi
9:50 PM79 °FMostly cloudy.3 mph87%29.85 "Hg15 mi
8:50 PM78 °FMostly cloudy.5 mph89%29.84 "Hg15 mi
7:52 PM78 °FMostly cloudy.5 mph86%29.83 "Hg15 mi
6:50 PM81 °FMostly cloudy.3 mph83%29.82 "Hg15 mi
5:51 PM83 °FMore clouds than sun.2 mph79%29.80 "Hg15 mi
4:52 PM85 °FMore clouds than sun.5 mph75%29.78 "Hg15 mi
3:50 PM85 °FCloudy.8 mph72%29.78 "Hg15 mi
2:50 PM86 °FMore clouds than sun.6 mph80%29.80 "Hg15 mi
1:50 PM86 °FCloudy.5 mph80%29.79 "Hg15 mi
Weather by CustomWeather, © 2015

See weather overviewHow to use our weather pages